This demonstration page uses our WeatherBlox Daily Observations layout. Learn more.

40.92945, -100.16068

Hourly Observations for January 13, 2018

Temp ( °F °C ) Dew Point ( °F °C ) Humidity (%) Winds ( mph kmh ) Pressure ( in mb ) Visibility ( mi km ) Precip ( " mm )
12:15 am 00:15 Cloudy 8 -13.2 2 -16.9 74 74 N 7 11 30.8 1043 10 16.0934 0 0
12:35 am 00:35 Cloudy 8 -13.4 1 -17 75 75 N 7 11 30.8 1043 10 16.0934 0 0
12:55 am 00:55 Cloudy 8 -13.4 1 -17 75 75 N 7 11 30.77 1042 10 16.0934 0 0
1:15 am 01:15 Cloudy 8 -13.5 1 -17.1 75 75 N 6 9 30.77 1042 10 16.0934 0 0
1:35 am 01:35 Cloudy 8 -13.5 1 -17.1 75 75 N 6 9 30.77 1042 10 16.0934 0 0
1:55 am 01:55 Cloudy 8 -13.6 1 -17.1 75 75 N 7 11 30.77 1042 10 16.0934 0 0
2:15 am 02:15 Cloudy 7 -13.7 1 -17.4 74 74 N 6 9 30.77 1042 10 16.0934 0 0
2:35 am 02:35 Cloudy 7 -14 1 -17.5 75 75 NNE 5 7 30.77 1042 10 16.0934 0 0
2:55 am 02:55 Cloudy 7 -13.9 1 -17.4 75 75 NNE 3 6 30.77 1042 10 16.0934 0 0
3:15 am 03:15 Cloudy 7 -13.8 1 -17.5 74 74 N 3 6 30.8 1043 10 16.0934 0 0
3:35 am 03:35 Cloudy 7 -14 1 -17.4 76 76 Calm 30.77 1042 10 16.0934 0 0
3:55 am 03:55 Cloudy 7 -14 1 -17.4 76 76 Calm 30.77 1042 10 16.0934 0 0
4:15 am 04:15 Cloudy 7 -14.1 1 -17.5 76 76 Calm 30.77 1042 10 16.0934 0 0
4:35 am 04:35 Cloudy 7 -14 1 -17.4 76 76 NE 3 6 30.77 1042 10 16.0934 0 0
4:55 am 04:55 Cloudy 7 -14 1 -17.5 75 75 NE 3 6 30.77 1042 10 16.0934 0 0
5:15 am 05:15 Cloudy 7 -14 1 -17.5 75 75 NNE 3 6 30.77 1042 10 16.0934 0 0
5:35 am 05:35 Cloudy 7 -14.1 1 -17.5 76 76 NE 3 6 30.77 1042 10 16.0934 0 0
5:55 am 05:55 Cloudy 7 -14.1 1 -17.5 76 76 NE 5 7 30.77 1042 10 16.0934 0 0
6:15 am 06:15 Cloudy 6 -14.5 0 -17.7 77 77 E 6 9 30.8 1043 10 16.0934 0 0
6:35 am 06:35 Mostly Cloudy 5 -15.1 -1 -18.1 78 78 E 3 6 30.8 1043 10 16.0934 0 0
6:55 am 06:55 Mostly Cloudy 5 -15.2 -1 -18.3 77 77 Calm 30.8 1043 10 16.0934 0 0
7:15 am 07:15 Cloudy 5 -15.1 0 -18 79 79 Calm 30.8 1043 10 16.0934 0 0
7:35 am 07:35 Cloudy 5 -15.1 -1 -18.1 78 78 E 3 6 30.8 1043 10 16.0934 0 0
7:55 am 07:55 Cloudy 6 -14.4 1 -17.5 78 78 SE 3 6 30.77 1042 10 16.0934 0 0
8:15 am 08:15 Cloudy 7 -14.1 1 -17.5 76 76 ESE 5 7 30.77 1042 10 16.0934 0 0
8:35 am 08:35 Cloudy 7 -14 1 -17.3 76 76 ESE 6 9 30.77 1042 10 16.0934 0 0
8:55 am 08:55 Cloudy 7 -13.8 1 -17.4 74 74 ESE 7 11 30.77 1042 10 16.0934 0 0
9:15 am 09:15 Cloudy 8 -13.6 1 -17.1 75 75 SSE 5 7 30.77 1042 10 16.0934 0 0
9:35 am 09:35 Cloudy 8 -13.2 2 -16.9 74 74 SSE 7 11 30.77 1042 10 16.0934 0 0
9:55 am 09:55 Cloudy with Light Snow 9 -13 2 -16.5 75 75 SSE 7 11 30.77 1042 3 4.82802 0 0
10:15 am 10:15 Cloudy with Light Snow 9 -12.9 3 -16.2 77 77 SE 5 7 30.8 1043 2.5 4.02335 0 0
10:35 am 10:35 Cloudy with Light Snow 10 -12.5 3 -15.9 76 76 SSE 6 9 30.77 1042 4 6.43736 0 0
10:55 am 10:55 Cloudy with Light Snow 10 -12 4 -15.5 75 75 SSE 8 13 30.77 1042 10 16.0934 0 0
11:15 am 11:15 Cloudy with Light Snow 11 -11.7 5 -15.2 76 76 SSE 9 15 30.71 1040 10 16.0934 0 0
11:35 am 11:35 Cloudy 12 -11.1 5 -14.8 74 74 S 9 15 30.71 1040 7 11.26538 0 0
11:55 am 11:55 Cloudy with Light Snow 13 -10.8 6 -14.7 73 73 S 7 11 30.71 1040 7 11.26538 0 0
12:15 pm 12:15 Cloudy 13 -10.6 6 -14.7 72 72 S 8 13 30.68 1039 10 16.0934 0 0
12:35 pm 12:35 Cloudy 13 -10.6 6 -14.7 72 72 S 8 13 30.68 1039 10 16.0934 0 0
12:55 pm 12:55 Cloudy 14 -10.2 6 -14.3 72 72 S 7 11 30.65 1038 10 16.0934 0 0
1:15 pm 13:15 Cloudy 14 -10.2 6 -14.2 73 73 S 9 15 30.65 1038 10 16.0934 0 0
1:35 pm 13:35 Cloudy 14 -10 7 -13.9 73 73 SSE 10 17 30.59 1036 10 16.0934 0 0
1:55 pm 13:55 Cloudy 15 -9.7 7 -13.8 72 72 S 9 15 30.59 1036 10 16.0934 0 0
2:15 pm 14:15 Cloudy 15 -9.5 8 -13.5 73 73 S 9 15 30.59 1036 10 16.0934 0 0
2:35 pm 14:35 Cloudy 15 -9.3 8 -13.2 74 74 S 10 17 30.56 1035 10 16.0934 0 0
2:55 pm 14:55 Mostly Cloudy 15 -9.2 9 -13 74 74 SSE 10 17 30.56 1035 10 16.0934 0 0
3:15 pm 15:15 Cloudy 16 -9 9 -12.7 75 75 S 9 15 30.56 1035 10 16.0934 0 0
3:35 pm 15:35 Cloudy 16 -8.7 10 -12.4 75 75 S 9 15 30.56 1035 10 16.0934 0 0
3:55 pm 15:55 Cloudy with Light Snow 17 -8.5 10 -12.1 76 76 S 9 15 30.56 1035 10 16.0934 0 0
4:15 pm 16:15 Cloudy 17 -8.5 10 -12.1 76 76 S 10 17 30.56 1035 10 16.0934 0 0
4:35 pm 16:35 Cloudy 17 -8.5 10 -12.1 76 76 S 9 15 30.56 1035 10 16.0934 0 0
4:55 pm 16:55 Cloudy 17 -8.5 10 -12 76 76 SSE 9 15 30.56 1035 10 16.0934 0 0
5:15 pm 17:15 Cloudy 17 -8.5 11 -11.9 77 77 SSE 9 15 30.59 1036 10 16.0934 0 0
5:35 pm 17:35 Cloudy 17 -8.5 11 -11.7 78 78 SSE 8 13 30.59 1036 7 11.26538 0 0
5:55 pm 17:55 Cloudy with Light Snow 17 -8.5 11 -11.5 79 79 SSE 10 17 30.56 1035 4 6.43736 0 0
6:15 pm 18:15 Cloudy with Light Snow 17 -8.6 12 -11.2 82 82 SSE 9 15 30.56 1035 3 4.82802 0 0
6:35 pm 18:35 Cloudy with Light Snow 16 -8.7 12 -11.2 82 82 SSE 12 19 30.56 1035 3 4.82802 0 0
6:55 pm 18:55 Cloudy with Light Snow 16 -8.7 12 -11.1 83 83 SSE 12 19 30.56 1035 4 6.43736 0 0
7:15 pm 19:15 Cloudy with Light Snow 16 -8.7 12 -11.1 83 83 SSE 13 20 30.56 1035 4 6.43736 0 0
7:35 pm 19:35 Cloudy with Light Snow 16 -8.7 12 -11 84 84 SSE 12 19 30.53 1034 3 4.82802 0 0
7:55 pm 19:55 Cloudy with Light Snow 17 -8.6 12 -10.9 84 84 S 10 17 30.53 1034 5 8.0467 0 0
8:15 pm 20:15 Cloudy 17 -8.6 12 -11 83 83 S 8 13 30.53 1034 7 11.26538 0 0
8:35 pm 20:35 Cloudy with Light Snow 17 -8.5 13 -10.8 84 84 S 9 15 30.53 1034 7 11.26538 0 0
8:55 pm 20:55 Cloudy with Light Snow 17 -8.5 12 -10.9 83 83 S 10 17 30.53 1034 7 11.26538 0 0
9:15 pm 21:15 Cloudy with Light Snow 17 -8.3 13 -10.7 83 83 S 9 15 30.53 1034 5 8.0467 0 0
9:35 pm 21:35 Cloudy with Light Snow 17 -8.2 13 -10.5 84 84 S 9 15 30.53 1034 3 4.82802 0 0
9:55 pm 21:55 Cloudy with Light Snow 18 -8 13 -10.3 84 84 S 8 13 30.5 1033 3 4.82802 0 0
10:15 pm 22:15 Cloudy with Light Snow 18 -8 14 -10.2 84 84 S 10 17 30.5 1033 4 6.43736 0 0
10:35 pm 22:35 Cloudy with Light Snow 18 -7.8 14 -10 84 84 SSW 7 11 30.5 1033 2 3.21868 0 0
10:55 pm 22:55 Cloudy with Light Snow 18 -7.7 15 -9.7 86 86 SSW 7 11 30.5 1033 1.25 2.011675 0.01 0.254
11:15 pm 23:15 Cloudy with Light Snow 19 -7.4 15 -9.3 86 86 SW 7 11 30.5 1033 1.75 2.816345 0 0
11:35 pm 23:35 Cloudy with Light Snow 19 -7.2 16 -9 87 87 SSW 3 6 30.5 1033 1.5 2.41401 0 0
11:55 pm 23:55 Cloudy with Light Snow 19 -7 16 -9 86 86 SSW 7 11 30.5 1033 3 4.82802 0 0

Powered by AerisWeather